La Junta, CO

10:31 PM MDT on March 24, 2017 (GMT -0600)
La Junta Municipal

Weather History for KLHX - August, 2014

Change the Weather History Date:

Wednesday, August 27, 2014

  Actual Average Record
Temperature  
Mean Temperature 74 °F 74 °F  
Max Temperature 87 °F 89 °F 102 °F (1960)
Min Temperature 61 °F 60 °F 50 °F (1992)
Degree Days  
Heating Degree Days 0 0  
Month to date heating degree days 0 0  
Since 1 June heating degree days 5 17  
Since 1 July heating degree days 0 1  
Cooling Degree Days 9 10  
Month to date cooling degree days 310 312  
Year to date cooling degree days 1149 1043  
Since 1 June cooling degree days 1027 970  
Growing Degree Days 24 (Base 50)    
Moisture  
Dew Point 60 °F    
Average Humidity 66    
Maximum Humidity 100    
Minimum Humidity 32    
Precipitation  
Precipitation 0.02 in 0.04 in 0.09 in (1949)
Month to date precipitation 2.18 1.44  
Year to date precipitation 10.71  
Sea Level Pressure  
Sea Level Pressure 29.97 in    
Wind  
Wind Speed 8 mph (ESE)    
Max Wind Speed 32 mph    
Max Gust Speed 43 mph    
Visibility 8 miles    
Events Fog , Rain , Thunderstorm    
T = Trace of Precipitation, MM = Missing Value Source: NWS Daily Summary

Daily Weather History Graph

Daily Weather History Graph

Search for Another Location

Airport or City:

Trip Planner

Search our weather history database for the weather conditions in past years. The results will help you decide how hot, cold, wet, or windy it might be!

Date:

Astronomy

Aug. 27, 2014 Rise Set
Actual Time 6:19 AM MDT 7:30 PM MDT
Civil Twilight 5:52 AM MDT 7:57 PM MDT
Nautical Twilight 5:19 AM MDT 8:30 PM MDT
Astronomical Twilight 4:45 AM MDT 9:04 PM MDT
Moon 8:15 AM MDT (8/27) 8:27 PM MDT (8/27)
Length of Visible Light 14h 05m
Length of Day
13h 11m
Waxing Crescent, 4% of the Moon is Illuminated
Aug 27
Waxing Crescent
Sep 2
First Quarter
Sep 8
Full
Sep 15
Last Quarter
Sep 24
New

Hourly Weather History & Observations

Time (MDT) Temp. Heat Index Dew Point Humidity Pressure Visibility Wind Dir Wind Speed Gust Speed Precip Events Conditions
12:53 AM 64.9 °F - 63.0 °F 93% 30.01 in 10.0 mi SE 3.5 mph - N/A   Overcast
1:53 AM 64.9 °F - 63.0 °F 93% 29.99 in 10.0 mi ESE 5.8 mph - N/A   Mostly Cloudy
2:53 AM 64.0 °F - 63.0 °F 96% 29.97 in 10.0 mi ESE 5.8 mph - N/A   Overcast
3:53 AM 64.0 °F - 63.0 °F 96% 29.96 in 8.0 mi ESE 5.8 mph - N/A   Mostly Cloudy
4:53 AM 63.0 °F - 62.1 °F 97% 29.97 in 6.0 mi ESE 5.8 mph - N/A   Clear
5:21 AM 62.1 °F - 61.0 °F 96% 30.11 in 2.5 mi East 3.5 mph - N/A   Partly Cloudy
5:25 AM 62.1 °F - 61.0 °F 96% 30.11 in 1.0 mi East 3.5 mph - N/A   Mist
5:32 AM 62.1 °F - 61.0 °F 96% 30.12 in 0.5 mi East 3.5 mph - N/A Fog Fog
5:53 AM 62.1 °F - 61.0 °F 96% 29.99 in 0.5 mi East 4.6 mph - N/A Fog Fog
6:16 AM 61.0 °F - 61.0 °F 100% 30.12 in 1.2 mi East 5.8 mph - N/A   Mostly Cloudy
6:23 AM 61.0 °F - 60.1 °F 97% 30.12 in 3.0 mi ESE 5.8 mph - N/A   Scattered Clouds
6:53 AM 62.1 °F - 61.0 °F 96% 30.01 in 7.0 mi ESE 3.5 mph - N/A   Clear
7:53 AM 64.9 °F - 64.0 °F 97% 30.00 in 10.0 mi SE 4.6 mph - N/A   Clear
8:53 AM 71.1 °F - 64.0 °F 78% 29.98 in 10.0 mi South 6.9 mph - N/A   Clear
9:53 AM 69.1 °F - 63.0 °F 81% 29.99 in 10.0 mi West 9.2 mph - N/A   Clear
10:53 AM 73.0 °F - 61.0 °F 66% 29.98 in 10.0 mi SW 10.4 mph - N/A   Clear
1:53 PM 81.0 °F 80.8 °F 55.9 °F 42% 29.90 in - Variable 3.5 mph - N/A   Unknown
2:53 PM 82.9 °F 81.8 °F 53.1 °F 36% 29.87 in 10.0 mi Variable 3.5 mph - N/A   Clear
3:53 PM 86.0 °F 84.2 °F 54.0 °F 33% 29.83 in 10.0 mi SE 5.8 mph - N/A   Clear
4:53 PM 82.9 °F 81.8 °F 53.1 °F 36% 29.81 in 10.0 mi ESE 5.8 mph - N/A   Clear
5:53 PM 84.0 °F 82.5 °F 53.1 °F 34% 29.80 in 10.0 mi SE 8.1 mph - N/A   Clear
6:46 PM 79.0 °F - 61.0 °F 54% 29.97 in 10.0 mi Calm Calm - N/A Thunderstorm Clear
6:53 PM 78.1 °F - 62.1 °F 58% 29.82 in 10.0 mi WSW 5.8 mph - N/A Thunderstorm Scattered Clouds
7:01 PM 75.9 °F - 57.0 °F 52% 30.01 in 7.0 mi SSW 32.2 mph 42.6 mph 0.01 in Rain , Thunderstorm Light Thunderstorms and Rain
7:48 PM 71.6 °F - 57.2 °F 60% 29.98 in 10.0 mi East 12.7 mph - 0.01 in Thunderstorm Mostly Cloudy
7:53 PM 70.0 °F - 59.0 °F 68% 29.83 in 10.0 mi East 15.0 mph - 0.01 in Thunderstorm Mostly Cloudy
8:01 PM 69.1 °F - 60.1 °F 73% 29.97 in 10.0 mi East 15.0 mph - N/A   Mostly Cloudy
8:40 PM 70.0 °F - 62.1 °F 76% 30.01 in 10.0 mi NW 3.5 mph - N/A Thunderstorm Thunderstorm
8:53 PM 70.0 °F - 62.1 °F 76% 29.86 in 7.0 mi East 15.0 mph - 0.00 in Rain , Thunderstorm Thunderstorms and Rain
9:01 PM 69.1 °F - 62.1 °F 78% 30.00 in 10.0 mi East 6.9 mph - 0.00 in Rain Light Rain
9:11 PM 68.0 °F - 61.0 °F 78% 30.00 in 10.0 mi ESE 11.5 mph - 0.00 in Thunderstorm Mostly Cloudy
9:43 PM 70.0 °F - 61.0 °F 73% 30.01 in 10.0 mi ESE 3.5 mph - 0.01 in   Overcast
9:53 PM 69.1 °F - 61.0 °F 75% 29.87 in 10.0 mi North - - 0.01 in   Mostly Cloudy
10:53 PM 68.0 °F - 53.1 °F 59% 29.85 in 10.0 mi WSW 11.5 mph - N/A   Clear
11:23 PM 69.1 °F - 57.9 °F 68% 30.02 in 10.0 mi NNW 26.5 mph 34.5 mph N/A   Clear
11:37 PM 68.0 °F - 59.0 °F 73% 30.03 in 10.0 mi North 21.9 mph 39.1 mph N/A   Clear
11:53 PM 66.9 °F - 57.0 °F 70% 29.89 in 10.0 mi North 20.7 mph 32.2 mph N/A   Clear